WZZ3072 LPMA-EPWA

Flight info

Callsign WZZ3072
Flight time 4h 32m
Altitude 34000
Route DEGUN DCT ROLAR DCT VERAM/N0448F360 DCT ASMAR DCT DEMOS DCT LOTEE DCT AZFIC DCT ERIGA DCT MOKOR UN741 NTS DCT GONEK DCT TABOV DCT TSU DCT OQQAL DCT RANUX/N0452F370 DCT VALEK DCT LIPNI DCT LIMGO DCT BOMBI DCT LOHRE L984 KOMIB DCT OKG DCT BALTU DCT LEGAZ DCT LAGAR DCT DINOV DCT GODLO DCT VAGSA DCT LUNUK DCT OKENO DCT GOGUS DCT AGAVA
Aircraft A21N/M-SDE2E3FGHIRWXY/LB1

Departure

Time 2026-05-07 10:55
Airport Cristiano Ronaldo International Airport (LPMA)

Arrival

Time 2026-05-07 15:27
Airport Warsaw Chopin Airport (EPWA)
Time Latitude Longitude Altitude Speed Heading
2026-05-07 10:12 32.69337 -16.77695 187 ft 0 kts 136°
2026-05-07 10:46 32.69336 -16.77694 187 ft 0 kts 136°
2026-05-07 10:46 32.69345 -16.77704 189 ft 2 kts 136°
2026-05-07 10:46 32.69356 -16.77716 190 ft 2 kts 137°
2026-05-07 10:47 32.69367 -16.77729 192 ft 2 kts 151°
2026-05-07 10:47 32.69382 -16.77732 193 ft 2 kts 189°
2026-05-07 10:47 32.69394 -16.77726 193 ft 0 kts 221°
2026-05-07 10:47 32.69398 -16.77720 193 ft 1 kts 227°
2026-05-07 10:48 32.69400 -16.77718 193 ft 0 kts 226°
2026-05-07 10:51 32.69390 -16.77731 193 ft 9 kts 226°
2026-05-07 10:51 32.69335 -16.77799 189 ft 13 kts 226°
2026-05-07 10:51 32.69291 -16.77884 184 ft 14 kts 263°
2026-05-07 10:52 32.69290 -16.77996 182 ft 11 kts 271°
2026-05-07 10:52 32.69242 -16.78091 176 ft 16 kts 223°
2026-05-07 10:52 32.69142 -16.78203 162 ft 18 kts 224°
2026-05-07 10:52 32.69056 -16.78304 153 ft 15 kts 225°
2026-05-07 10:53 32.68983 -16.78382 149 ft 11 kts 209°
2026-05-07 10:53 32.68920 -16.78404 141 ft 8 kts 201°
2026-05-07 10:53 32.68901 -16.78453 137 ft 5 kts 310°
2026-05-07 10:53 32.68917 -16.78456 140 ft 1 kts 18°
2026-05-07 10:54 32.68977 -16.78396 147 ft 24 kts 45°
2026-05-07 10:54 32.69255 -16.78073 178 ft 88 kts 44°
2026-05-07 10:54 32.69843 -16.77385 218 ft 147 kts 44°
2026-05-07 10:54 32.70658 -16.76391 412 ft 179 kts 45°
2026-05-07 10:55 32.71479 -16.75277 1044 ft 184 kts 60°
2026-05-07 10:55 32.71612 -16.73799 1757 ft 187 kts 106°
2026-05-07 10:55 32.71083 -16.72392 2238 ft 191 kts 116°
2026-05-07 10:55 32.70445 -16.70937 2535 ft 206 kts 116°
2026-05-07 10:56 32.69804 -16.69352 2834 ft 221 kts 114°
2026-05-07 10:56 32.69166 -16.67624 3080 ft 240 kts 112°
2026-05-07 10:56 32.68518 -16.65734 3470 ft 254 kts 109°
2026-05-07 10:56 32.68280 -16.63632 3941 ft 263 kts 78°
2026-05-07 10:57 32.69083 -16.61690 4455 ft 268 kts 47°
2026-05-07 10:57 32.70390 -16.60148 5151 ft 269 kts 41°
2026-05-07 10:57 32.71761 -16.58644 5826 ft 273 kts 42°
2026-05-07 10:57 32.73145 -16.57058 6516 ft 277 kts 43°
2026-05-07 10:58 32.74494 -16.55431 7189 ft 280 kts 44°
2026-05-07 10:58 32.75832 -16.53759 7839 ft 284 kts 45°
2026-05-07 10:58 32.77182 -16.52030 8464 ft 289 kts 45°
2026-05-07 10:58 32.78557 -16.50250 9085 ft 293 kts 45°
2026-05-07 10:59 32.79928 -16.48462 9672 ft 297 kts 45°
2026-05-07 10:59 32.81319 -16.46637 10251 ft 301 kts 45°
2026-05-07 10:59 32.82751 -16.44759 10605 ft 314 kts 45°
2026-05-07 10:59 32.84246 -16.42793 10882 ft 330 kts 45°
2026-05-07 11:00 32.85825 -16.40714 11159 ft 345 kts 45°
2026-05-07 11:00 32.87462 -16.38553 11397 ft 359 kts 45°
2026-05-07 11:00 32.89169 -16.36299 11667 ft 372 kts 45°
2026-05-07 11:00 32.90899 -16.34009 12116 ft 379 kts 46°
2026-05-07 11:01 32.92670 -16.31663 12620 ft 384 kts 46°
2026-05-07 11:01 32.94459 -16.29290 13110 ft 388 kts 46°
2026-05-07 11:01 32.96262 -16.26897 13595 ft 393 kts 46°
2026-05-07 11:01 32.98096 -16.24465 14036 ft 397 kts 46°
2026-05-07 11:02 32.99958 -16.21993 14505 ft 402 kts 47°
2026-05-07 11:02 33.01840 -16.19491 14956 ft 406 kts 46°
2026-05-07 11:02 33.03727 -16.16981 15392 ft 411 kts 47°
2026-05-07 11:02 33.05631 -16.14446 15837 ft 414 kts 47°
2026-05-07 11:03 33.07542 -16.11900 16280 ft 418 kts 47°
2026-05-07 11:03 33.09510 -16.09280 16683 ft 423 kts 47°
2026-05-07 11:03 33.11466 -16.06671 17087 ft 427 kts 47°
2026-05-07 11:03 33.13449 -16.04024 17467 ft 431 kts 47°
2026-05-07 11:04 33.15471 -16.01326 17853 ft 435 kts 47°
2026-05-07 11:04 33.17479 -15.98642 18191 ft 440 kts 47°
2026-05-07 11:04 33.19508 -15.95924 18607 ft 442 kts 47°
2026-05-07 11:04 33.21559 -15.93177 19003 ft 445 kts 47°
2026-05-07 11:05 33.23632 -15.90396 19393 ft 447 kts 47°
2026-05-07 11:05 33.25683 -15.87645 19766 ft 450 kts 47°
2026-05-07 11:05 33.27784 -15.84826 20148 ft 452 kts 47°
2026-05-07 11:05 33.29861 -15.82036 20518 ft 455 kts 47°
2026-05-07 11:06 33.31962 -15.79210 20908 ft 456 kts 47°
2026-05-07 11:06 33.34077 -15.76362 21249 ft 459 kts 47°
2026-05-07 11:06 33.36198 -15.73504 21597 ft 461 kts 47°
2026-05-07 11:06 33.38329 -15.70634 21936 ft 463 kts 47°
2026-05-07 11:07 33.40536 -15.67836 22240 ft 465 kts 41°
2026-05-07 11:07 33.43062 -15.65419 22571 ft 463 kts 31°
2026-05-07 11:07 33.45832 -15.63498 22888 ft 462 kts 23°
2026-05-07 11:07 33.48730 -15.61832 23208 ft 463 kts 21°
2026-05-07 11:08 33.51642 -15.60228 23500 ft 465 kts 21°
2026-05-07 11:08 33.54605 -15.58596 23807 ft 467 kts 21°
2026-05-07 11:08 33.57573 -15.56945 24118 ft 469 kts 21°
2026-05-07 11:08 33.60508 -15.55298 24412 ft 471 kts 21°
2026-05-07 11:09 33.63484 -15.53619 24691 ft 473 kts 21°
2026-05-07 11:09 33.66458 -15.51933 24975 ft 476 kts 21°
2026-05-07 11:09 33.69457 -15.50230 25259 ft 477 kts 21°
2026-05-07 11:09 33.72489 -15.48505 25522 ft 480 kts 21°
2026-05-07 11:10 33.75502 -15.46790 25794 ft 481 kts 21°
2026-05-07 11:10 33.78528 -15.45066 26049 ft 484 kts 21°
2026-05-07 11:10 33.81576 -15.43326 26300 ft 486 kts 21°
2026-05-07 11:10 33.84638 -15.41577 26546 ft 488 kts 21°
2026-05-07 11:11 33.87694 -15.39830 26800 ft 489 kts 21°
2026-05-07 11:11 33.90783 -15.38062 27018 ft 492 kts 21°
2026-05-07 11:11 33.93866 -15.36299 27257 ft 493 kts 21°
2026-05-07 11:11 33.96969 -15.34522 27494 ft 495 kts 21°
2026-05-07 11:12 34.00072 -15.32743 27702 ft 497 kts 22°
2026-05-07 11:12 34.03193 -15.30952 27949 ft 498 kts 22°
2026-05-07 11:12 34.06308 -15.29161 28285 ft 496 kts 22°
2026-05-07 11:12 34.09410 -15.27373 28630 ft 495 kts 21°
2026-05-07 11:13 34.12515 -15.25586 28925 ft 495 kts 22°
2026-05-07 11:13 34.15641 -15.23786 29205 ft 495 kts 22°
2026-05-07 11:13 34.18730 -15.22002 29492 ft 494 kts 22°
2026-05-07 11:13 34.21804 -15.20232 29793 ft 493 kts 22°
2026-05-07 11:14 34.24931 -15.18434 30097 ft 493 kts 21°
2026-05-07 11:14 34.27994 -15.16666 30402 ft 492 kts 21°
2026-05-07 11:14 34.31072 -15.14891 30731 ft 491 kts 21°
2026-05-07 11:14 34.34156 -15.13109 31014 ft 491 kts 21°
2026-05-07 11:15 34.37230 -15.11332 31241 ft 492 kts 21°
2026-05-07 11:15 34.40327 -15.09535 31500 ft 492 kts 21°
2026-05-07 11:15 34.43409 -15.07747 31801 ft 491 kts 21°
2026-05-07 11:15 34.46481 -15.05963 32110 ft 490 kts 21°
2026-05-07 11:16 34.49531 -15.04192 32365 ft 490 kts 21°
2026-05-07 11:16 34.52610 -15.02402 32584 ft 491 kts 21°
2026-05-07 11:16 34.55682 -15.00617 32751 ft 493 kts 21°
2026-05-07 11:16 34.58775 -14.98781 32920 ft 496 kts 23°
2026-05-07 11:17 34.61826 -14.96766 33136 ft 498 kts 25°
2026-05-07 11:17 34.64813 -14.94708 33345 ft 499 kts 25°
2026-05-07 11:17 34.67827 -14.92610 33540 ft 500 kts 25°
2026-05-07 11:17 34.70878 -14.90493 33722 ft 501 kts 25°
2026-05-07 11:18 34.73889 -14.88410 33912 ft 502 kts 25°
2026-05-07 11:18 34.76928 -14.86318 33994 ft 504 kts 25°
2026-05-07 11:18 34.83002 -14.82138 34002 ft 504 kts 25°
2026-05-07 11:19 34.89118 -14.77928 34000 ft 504 kts 25°
2026-05-07 11:19 34.95213 -14.73789 34002 ft 505 kts 26°
2026-05-07 11:20 35.01183 -14.69303 33998 ft 506 kts 28°
2026-05-07 11:20 35.07156 -14.64714 34003 ft 505 kts 27°
2026-05-07 11:21 35.13162 -14.60273 33996 ft 505 kts 26°
2026-05-07 11:21 35.19197 -14.55963 34002 ft 503 kts 25°
2026-05-07 11:22 35.25246 -14.51720 33998 ft 503 kts 25°
2026-05-07 11:22 35.31325 -14.47477 33994 ft 503 kts 25°
2026-05-07 11:23 35.37354 -14.43282 33992 ft 503 kts 25°
2026-05-07 11:23 35.43459 -14.39024 33998 ft 504 kts 25°
2026-05-07 11:24 35.49542 -14.34773 33988 ft 503 kts 26°
2026-05-07 11:24 35.55578 -14.30553 33990 ft 503 kts 26°
2026-05-07 11:25 35.61649 -14.26300 33993 ft 503 kts 26°
2026-05-07 11:25 35.67715 -14.22041 33993 ft 503 kts 26°
2026-05-07 11:26 35.73805 -14.17758 33980 ft 502 kts 26°
2026-05-07 11:26 35.79827 -14.13511 33991 ft 501 kts 26°
2026-05-07 11:27 35.85873 -14.09244 33987 ft 499 kts 26°
2026-05-07 11:27 35.91890 -14.04993 33979 ft 500 kts 26°
2026-05-07 11:28 35.97911 -14.00729 33982 ft 500 kts 26°
2026-05-07 11:28 36.03937 -13.96449 33978 ft 500 kts 26°
2026-05-07 11:29 36.09948 -13.92179 33978 ft 500 kts 26°
2026-05-07 11:29 36.15950 -13.87908 33977 ft 500 kts 26°
2026-05-07 11:30 36.21983 -13.83604 33973 ft 501 kts 26°
2026-05-07 11:30 36.27989 -13.79313 33976 ft 500 kts 26°
2026-05-07 11:31 36.34043 -13.74978 33976 ft 501 kts 26°
2026-05-07 11:31 36.40026 -13.70690 33975 ft 500 kts 26°
2026-05-07 11:32 36.49083 -13.64180 33975 ft 501 kts 26°
2026-05-07 11:33 36.55071 -13.59863 33975 ft 500 kts 25°
2026-05-07 11:33 36.61120 -13.55500 33973 ft 501 kts 26°
2026-05-07 11:34 36.67112 -13.51166 33975 ft 500 kts 25°
2026-05-07 11:34 36.73103 -13.46825 33976 ft 500 kts 25°
2026-05-07 11:35 36.79109 -13.42469 33975 ft 501 kts 25°
2026-05-07 11:35 36.85148 -13.38074 33970 ft 500 kts 25°
2026-05-07 11:36 36.91152 -13.33705 33970 ft 501 kts 26°
2026-05-07 11:36 36.97134 -13.29340 33972 ft 501 kts 26°
2026-05-07 11:37 37.03164 -13.24933 33969 ft 502 kts 26°
2026-05-07 11:37 37.09150 -13.20548 33969 ft 500 kts 26°
2026-05-07 11:38 37.15132 -13.16161 33967 ft 499 kts 26°
2026-05-07 11:38 37.21098 -13.11772 33963 ft 497 kts 26°
2026-05-07 11:39 37.27056 -13.07385 33956 ft 497 kts 26°
2026-05-07 11:39 37.33019 -13.02986 33960 ft 496 kts 26°
2026-05-07 11:40 37.38931 -12.98615 33958 ft 495 kts 26°
2026-05-07 11:40 37.44850 -12.94232 33956 ft 494 kts 26°
2026-05-07 11:41 37.50747 -12.89858 33957 ft 492 kts 26°
2026-05-07 11:41 37.56644 -12.85475 33958 ft 492 kts 26°
2026-05-07 11:42 37.62509 -12.81106 33955 ft 491 kts 26°
2026-05-07 11:42 37.68407 -12.76706 33960 ft 491 kts 26°
2026-05-07 11:43 37.74263 -12.72328 33954 ft 489 kts 26°
2026-05-07 11:43 37.80104 -12.67955 33959 ft 489 kts 26°
2026-05-07 11:44 37.85915 -12.63596 33962 ft 489 kts 26°
2026-05-07 11:44 37.91756 -12.59205 33953 ft 487 kts 26°
2026-05-07 11:45 37.97558 -12.54834 33955 ft 486 kts 26°
2026-05-07 11:45 38.03377 -12.50445 33954 ft 486 kts 26°
2026-05-07 11:46 38.09173 -12.46064 33953 ft 485 kts 25°
2026-05-07 11:46 38.14948 -12.41693 33953 ft 486 kts 26°
2026-05-07 11:47 38.20752 -12.37287 33950 ft 485 kts 26°
2026-05-07 11:47 38.26533 -12.32896 34209 ft 486 kts 26°
2026-05-07 11:47 38.29427 -12.30692 34480 ft 485 kts 26°
2026-05-07 11:48 38.32301 -12.28500 34726 ft 484 kts 26°
2026-05-07 11:48 38.35180 -12.26304 34953 ft 483 kts 26°
2026-05-07 11:48 38.38069 -12.24097 35145 ft 483 kts 26°
2026-05-07 11:48 38.40932 -12.21910 35334 ft 482 kts 26°
2026-05-07 11:49 38.43816 -12.19706 35537 ft 482 kts 26°
2026-05-07 11:49 38.46674 -12.17518 35725 ft 481 kts 26°
2026-05-07 11:49 38.49520 -12.15339 35892 ft 481 kts 26°
2026-05-07 11:50 38.55261 -12.10936 35933 ft 482 kts 26°
2026-05-07 11:50 38.60981 -12.06540 35938 ft 481 kts 26°
2026-05-07 11:51 38.66716 -12.02121 35939 ft 480 kts 26°
2026-05-07 11:51 38.72396 -11.97738 35937 ft 479 kts 26°
2026-05-07 11:52 38.78081 -11.93345 35932 ft 478 kts 26°
2026-05-07 11:52 38.83761 -11.88945 35933 ft 478 kts 26°
2026-05-07 11:53 38.89441 -11.84540 35934 ft 479 kts 26°
2026-05-07 11:53 38.95135 -11.80114 35929 ft 477 kts 26°
2026-05-07 11:54 39.00787 -11.75707 35928 ft 477 kts 25°
2026-05-07 11:54 39.06450 -11.71286 35919 ft 476 kts 25°
2026-05-07 11:55 39.12086 -11.66884 35913 ft 476 kts 26°
2026-05-07 11:55 39.17726 -11.62463 35917 ft 475 kts 25°
2026-05-07 11:56 39.23360 -11.58046 35932 ft 476 kts 26°
2026-05-07 11:56 39.28988 -11.53618 35929 ft 476 kts 25°
2026-05-07 11:57 39.34655 -11.49154 35935 ft 476 kts 25°
2026-05-07 11:57 39.40294 -11.44701 35938 ft 475 kts 25°
2026-05-07 11:58 39.45900 -11.40268 35937 ft 474 kts 25°
2026-05-07 11:58 39.51508 -11.35823 35940 ft 472 kts 25°
2026-05-07 11:59 39.57079 -11.31403 35936 ft 472 kts 26°
2026-05-07 11:59 39.62681 -11.26947 35936 ft 473 kts 26°
2026-05-07 12:00 39.68306 -11.22464 35936 ft 472 kts 26°
2026-05-07 12:00 39.73886 -11.18007 35935 ft 472 kts 26°
2026-05-07 12:01 39.79446 -11.13556 35937 ft 471 kts 26°
2026-05-07 12:01 39.84980 -11.09121 35933 ft 469 kts 25°
2026-05-07 12:02 39.90544 -11.04655 35940 ft 469 kts 25°
2026-05-07 12:02 39.96070 -11.00208 35925 ft 468 kts 25°
2026-05-07 12:03 40.01614 -10.95740 35931 ft 468 kts 25°
2026-05-07 12:03 40.07127 -10.91288 35925 ft 468 kts 25°
2026-05-07 12:04 40.12674 -10.86799 35925 ft 468 kts 26°
2026-05-07 12:04 40.18186 -10.82328 35920 ft 468 kts 25°
2026-05-07 12:05 40.23720 -10.77832 35922 ft 467 kts 26°
2026-05-07 12:05 40.29198 -10.73370 35919 ft 467 kts 25°
2026-05-07 12:06 40.34712 -10.68875 35921 ft 467 kts 25°
2026-05-07 12:06 40.40221 -10.64373 35916 ft 467 kts 25°
2026-05-07 12:07 40.45723 -10.59867 35918 ft 466 kts 26°
2026-05-07 12:07 40.51188 -10.55385 35912 ft 466 kts 26°
2026-05-07 12:08 40.56679 -10.50870 35910 ft 465 kts 26°
2026-05-07 12:08 40.62154 -10.46361 35905 ft 464 kts 25°
2026-05-07 12:09 40.67611 -10.41856 35904 ft 464 kts 26°
2026-05-07 12:09 40.73047 -10.37363 35907 ft 464 kts 26°
2026-05-07 12:10 40.78514 -10.32831 35904 ft 463 kts 26°
2026-05-07 12:10 40.83949 -10.28322 35901 ft 463 kts 26°
2026-05-07 12:11 40.89383 -10.23799 35900 ft 462 kts 26°
2026-05-07 12:11 40.94814 -10.19275 35905 ft 462 kts 26°
2026-05-07 12:12 41.00224 -10.14758 35913 ft 462 kts 26°
2026-05-07 12:12 41.05673 -10.10195 35914 ft 462 kts 26°
2026-05-07 12:13 41.11080 -10.05662 35910 ft 460 kts 26°
2026-05-07 12:13 41.16469 -10.01135 35909 ft 459 kts 26°
2026-05-07 12:14 41.21831 -9.96623 35905 ft 459 kts 26°
2026-05-07 12:14 41.27200 -9.92096 35905 ft 459 kts 25°
2026-05-07 12:15 41.32579 -9.87552 35907 ft 459 kts 26°
2026-05-07 12:15 41.37967 -9.82990 35898 ft 457 kts 26°
2026-05-07 12:16 41.43302 -9.78462 35902 ft 456 kts 26°
2026-05-07 12:16 41.48629 -9.73933 35893 ft 455 kts 26°
2026-05-07 12:17 41.53944 -9.69405 35893 ft 455 kts 26°
2026-05-07 12:17 41.59258 -9.64870 35884 ft 455 kts 26°
2026-05-07 12:18 41.64571 -9.60326 35881 ft 455 kts 26°
2026-05-07 12:18 41.69868 -9.55784 35883 ft 453 kts 26°
2026-05-07 12:19 41.75184 -9.51220 35888 ft 454 kts 26°
2026-05-07 12:19 41.80472 -9.46667 35881 ft 451 kts 26°
2026-05-07 12:20 41.85726 -9.42132 35875 ft 451 kts 26°
2026-05-07 12:20 41.90957 -9.37522 35880 ft 454 kts 28°
2026-05-07 12:21 41.95902 -9.32228 35875 ft 459 kts 35°
2026-05-07 12:21 42.00649 -9.26491 35874 ft 459 kts 36°
2026-05-07 12:22 42.05373 -9.20724 35871 ft 457 kts 36°
2026-05-07 12:22 42.10080 -9.14983 35867 ft 458 kts 36°
2026-05-07 12:23 42.14784 -9.09236 35865 ft 457 kts 36°
2026-05-07 12:23 42.19468 -9.03507 35864 ft 455 kts 36°
2026-05-07 12:24 42.24122 -8.97801 35865 ft 454 kts 36°
2026-05-07 12:24 42.28802 -8.92053 35859 ft 454 kts 36°
2026-05-07 12:25 42.33427 -8.86363 35857 ft 454 kts 37°
2026-05-07 12:25 42.38088 -8.80615 35859 ft 453 kts 37°
2026-05-07 12:26 42.42750 -8.74851 35856 ft 453 kts 37°
2026-05-07 12:26 42.47371 -8.69126 35856 ft 452 kts 37°
2026-05-07 12:27 42.51989 -8.63393 35857 ft 452 kts 37°
2026-05-07 12:27 42.56603 -8.57653 35860 ft 451 kts 37°
2026-05-07 12:28 42.61206 -8.51914 35858 ft 452 kts 37°
2026-05-07 12:28 42.65827 -8.46144 35841 ft 452 kts 38°
2026-05-07 12:29 42.70451 -8.40355 35837 ft 451 kts 38°
2026-05-07 12:29 42.75020 -8.34624 35846 ft 450 kts 38°
2026-05-07 12:30 42.79618 -8.28845 35835 ft 451 kts 38°
2026-05-07 12:30 42.84213 -8.23057 35835 ft 451 kts 39°
2026-05-07 12:31 42.88803 -8.17261 35844 ft 450 kts 39°
2026-05-07 12:31 42.93401 -8.11445 35846 ft 449 kts 39°
2026-05-07 12:32 42.97952 -8.05675 35839 ft 449 kts 39°
2026-05-07 12:32 43.02495 -7.99903 35834 ft 449 kts 39°
2026-05-07 12:33 43.09339 -7.91182 35839 ft 449 kts 39°
2026-05-07 12:33 43.13912 -7.85341 35837 ft 449 kts 39°
2026-05-07 12:34 43.18462 -7.79518 35820 ft 449 kts 39°
2026-05-07 12:34 43.23009 -7.73685 35843 ft 450 kts 39°
2026-05-07 12:35 43.27577 -7.67817 35827 ft 450 kts 40°
2026-05-07 12:35 43.32119 -7.61963 35846 ft 450 kts 39°
2026-05-07 12:36 43.36648 -7.56115 35836 ft 450 kts 40°
2026-05-07 12:36 43.41190 -7.50238 35842 ft 450 kts 40°
2026-05-07 12:37 43.45749 -7.44326 35847 ft 450 kts 40°
2026-05-07 12:37 43.50291 -7.38424 35841 ft 450 kts 40°
2026-05-07 12:38 43.54833 -7.32510 35855 ft 451 kts 40°
2026-05-07 12:38 43.59389 -7.26564 35857 ft 451 kts 40°
2026-05-07 12:39 43.63901 -7.20662 35856 ft 451 kts 40°
2026-05-07 12:39 43.68447 -7.14703 35868 ft 451 kts 40°
2026-05-07 12:40 43.72993 -7.08731 35870 ft 451 kts 41°
2026-05-07 12:40 43.77508 -7.02786 36184 ft 452 kts 41°
2026-05-07 12:41 43.79803 -6.99760 36039 ft 450 kts 41°
2026-05-07 12:41 43.82048 -6.96795 35956 ft 449 kts 41°
2026-05-07 12:41 43.86536 -6.90861 35897 ft 449 kts 41°
2026-05-07 12:42 43.91059 -6.84863 35883 ft 450 kts 41°
2026-05-07 12:42 43.95572 -6.78869 35887 ft 450 kts 41°
2026-05-07 12:43 44.00069 -6.72884 35883 ft 450 kts 41°
2026-05-07 12:43 44.04564 -6.66888 35889 ft 452 kts 41°
2026-05-07 12:44 44.09093 -6.60831 35890 ft 452 kts 41°
2026-05-07 12:44 44.13617 -6.54770 35891 ft 453 kts 41°
2026-05-07 12:45 44.18130 -6.48705 35895 ft 454 kts 41°
2026-05-07 12:45 44.22669 -6.42595 35896 ft 454 kts 41°
2026-05-07 12:46 44.27198 -6.36486 35894 ft 454 kts 42°
2026-05-07 12:46 44.31728 -6.30359 35893 ft 455 kts 43°
2026-05-07 12:47 44.36272 -6.24198 35899 ft 455 kts 43°
2026-05-07 12:47 44.40778 -6.18076 35899 ft 456 kts 43°
2026-05-07 12:48 44.45318 -6.11892 35901 ft 456 kts 43°
2026-05-07 12:48 44.49852 -6.05701 35903 ft 456 kts 43°
2026-05-07 12:49 44.54377 -5.99512 35909 ft 456 kts 43°
2026-05-07 12:49 44.58904 -5.93300 35915 ft 457 kts 43°
2026-05-07 12:50 44.63403 -5.87109 35921 ft 457 kts 43°
2026-05-07 12:50 44.67955 -5.80859 35916 ft 457 kts 43°
2026-05-07 12:51 44.72495 -5.74667 35926 ft 457 kts 43°
2026-05-07 12:51 44.77034 -5.68457 35915 ft 458 kts 43°
2026-05-07 12:52 44.81575 -5.62224 35923 ft 459 kts 43°
2026-05-07 12:52 44.86145 -5.55930 35924 ft 459 kts 43°
2026-05-07 12:53 44.90694 -5.49652 35926 ft 460 kts 43°
2026-05-07 12:53 44.95234 -5.43370 35927 ft 460 kts 43°
2026-05-07 12:54 44.99780 -5.37065 35939 ft 460 kts 44°
2026-05-07 12:54 45.04335 -5.30732 35946 ft 460 kts 44°
2026-05-07 12:55 45.08890 -5.24382 35936 ft 461 kts 44°
2026-05-07 12:55 45.13435 -5.18035 35940 ft 461 kts 44°
2026-05-07 12:56 45.17993 -5.11653 35939 ft 460 kts 44°
2026-05-07 12:56 45.22531 -5.05284 35943 ft 460 kts 45°
2026-05-07 12:57 45.27063 -4.98907 35937 ft 460 kts 45°
2026-05-07 12:57 45.31570 -4.92552 35942 ft 460 kts 45°
2026-05-07 12:58 45.36104 -4.86144 35943 ft 462 kts 45°
2026-05-07 12:58 45.40660 -4.79687 35949 ft 462 kts 45°
2026-05-07 12:59 45.45182 -4.73264 35950 ft 462 kts 45°
2026-05-07 12:59 45.49726 -4.66794 35957 ft 463 kts 45°
2026-05-07 13:00 45.54252 -4.60333 35949 ft 462 kts 45°
2026-05-07 13:00 45.58767 -4.53875 35950 ft 463 kts 45°
2026-05-07 13:01 45.63309 -4.47360 35953 ft 463 kts 45°
2026-05-07 13:01 45.67830 -4.40860 35961 ft 463 kts 45°
2026-05-07 13:02 45.72348 -4.34350 35955 ft 463 kts 46°
2026-05-07 13:02 45.76860 -4.27831 35948 ft 463 kts 46°
2026-05-07 13:03 45.81398 -4.21260 35954 ft 464 kts 46°
2026-05-07 13:03 45.85897 -4.14727 35960 ft 464 kts 46°
2026-05-07 13:04 45.90426 -4.08136 35962 ft 463 kts 46°
2026-05-07 13:04 45.94910 -4.01594 35978 ft 464 kts 46°
2026-05-07 13:05 45.99446 -3.94959 35976 ft 464 kts 46°
2026-05-07 13:05 46.03949 -3.88356 35980 ft 464 kts 46°
2026-05-07 13:06 46.08427 -3.81774 35974 ft 465 kts 46°
2026-05-07 13:06 46.12955 -3.75102 35974 ft 465 kts 46°
2026-05-07 13:07 46.17432 -3.68488 35977 ft 464 kts 46°
2026-05-07 13:07 46.21950 -3.61798 35781 ft 464 kts 46°
2026-05-07 13:08 46.26428 -3.55148 35907 ft 466 kts 46°
2026-05-07 13:08 46.30952 -3.48414 35942 ft 467 kts 46°
2026-05-07 13:09 46.35430 -3.41730 35969 ft 467 kts 46°
2026-05-07 13:09 46.39928 -3.35000 35977 ft 467 kts 46°
2026-05-07 13:10 46.44432 -3.28243 35981 ft 467 kts 46°
2026-05-07 13:10 46.48925 -3.21480 35978 ft 467 kts 47°
2026-05-07 13:11 46.53421 -3.14650 35981 ft 467 kts 48°
2026-05-07 13:11 46.57480 -3.07383 35977 ft 466 kts 55°
2026-05-07 13:12 46.60961 -2.99457 35988 ft 466 kts 60°
2026-05-07 13:12 46.64197 -2.91350 35978 ft 466 kts 61°
2026-05-07 13:13 46.67445 -2.83184 35982 ft 466 kts 60°
2026-05-07 13:13 46.70679 -2.75066 35976 ft 466 kts 60°
2026-05-07 13:14 46.73919 -2.66920 35983 ft 466 kts 60°
2026-05-07 13:14 46.77147 -2.58779 35981 ft 466 kts 60°
2026-05-07 13:15 46.80376 -2.50611 35973 ft 466 kts 60°
2026-05-07 13:15 46.83577 -2.42484 35974 ft 466 kts 60°
2026-05-07 13:16 46.86830 -2.34265 35980 ft 467 kts 60°
2026-05-07 13:16 46.90235 -2.26232 35972 ft 466 kts 59°
2026-05-07 13:17 46.93646 -2.18208 35971 ft 466 kts 59°
2026-05-07 13:17 46.97034 -2.10154 35971 ft 466 kts 59°
2026-05-07 13:18 47.00411 -2.02082 35974 ft 466 kts 59°
2026-05-07 13:18 47.03651 -1.93888 35971 ft 466 kts 62°
2026-05-07 13:19 47.06789 -1.85655 35970 ft 466 kts 62°
2026-05-07 13:19 47.09953 -1.77372 35975 ft 466 kts 61°
2026-05-07 13:20 47.13123 -1.69075 35981 ft 466 kts 61°
2026-05-07 13:20 47.16340 -1.60813 35977 ft 466 kts 58°
2026-05-07 13:21 47.19873 -1.52851 35976 ft 466 kts 57°
2026-05-07 13:21 47.23439 -1.44944 35979 ft 466 kts 56°
2026-05-07 13:22 47.26990 -1.37026 35977 ft 466 kts 57°
2026-05-07 13:22 47.30560 -1.29026 35977 ft 466 kts 57°
2026-05-07 13:23 47.34040 -1.21201 35971 ft 467 kts 57°
2026-05-07 13:23 47.37537 -1.13314 35975 ft 467 kts 57°
2026-05-07 13:24 47.41072 -1.05316 35974 ft 466 kts 57°
2026-05-07 13:24 47.44592 -0.97330 35977 ft 466 kts 57°
2026-05-07 13:25 47.48113 -0.89319 35977 ft 466 kts 57°
2026-05-07 13:25 47.51618 -0.81322 35978 ft 466 kts 57°
2026-05-07 13:26 47.55132 -0.73279 35977 ft 466 kts 57°
2026-05-07 13:26 47.58633 -0.65243 35978 ft 466 kts 57°
2026-05-07 13:27 47.62136 -0.57178 35979 ft 466 kts 57°
2026-05-07 13:27 47.65608 -0.49161 35981 ft 466 kts 57°
2026-05-07 13:28 47.69099 -0.41072 35985 ft 465 kts 57°
2026-05-07 13:28 47.72577 -0.32996 35988 ft 465 kts 58°
2026-05-07 13:29 47.75985 -0.25058 35989 ft 465 kts 58°
2026-05-07 13:29 47.79445 -0.16974 35986 ft 466 kts 58°
2026-05-07 13:30 47.82895 -0.08888 35987 ft 466 kts 58°
2026-05-07 13:30 47.86356 -0.00754 35989 ft 466 kts 58°
2026-05-07 13:31 47.89797 0.07359 35998 ft 465 kts 58°
2026-05-07 13:31 47.93215 0.15443 36001 ft 464 kts 58°
2026-05-07 13:32 47.96648 0.23589 36007 ft 464 kts 58°
2026-05-07 13:32 48.00056 0.31697 36006 ft 464 kts 58°
2026-05-07 13:33 48.03293 0.40026 36003 ft 465 kts 64°
2026-05-07 13:33 48.05942 0.48809 36002 ft 465 kts 66°
2026-05-07 13:34 48.09843 0.61977 36002 ft 464 kts 65°
2026-05-07 13:35 48.12466 0.70769 35996 ft 464 kts 66°
2026-05-07 13:35 48.15105 0.79615 35997 ft 464 kts 66°
2026-05-07 13:36 48.17713 0.88379 36000 ft 465 kts 66°
2026-05-07 13:36 48.20233 0.96874 35999 ft 465 kts 66°
2026-05-07 13:37 48.22845 1.05716 35990 ft 465 kts 66°
2026-05-07 13:37 48.25456 1.14584 35990 ft 465 kts 66°
2026-05-07 13:38 48.28053 1.23432 35993 ft 464 kts 66°
2026-05-07 13:38 48.30623 1.32219 35994 ft 464 kts 66°
2026-05-07 13:39 48.33208 1.41094 35991 ft 464 kts 66°
2026-05-07 13:39 48.35778 1.49948 35992 ft 464 kts 66°
2026-05-07 13:40 48.38342 1.58814 35993 ft 464 kts 66°
2026-05-07 13:40 48.40913 1.67738 35993 ft 464 kts 67°
2026-05-07 13:41 48.43462 1.76616 35990 ft 464 kts 66°
2026-05-07 13:41 48.46008 1.85519 35986 ft 465 kts 66°
2026-05-07 13:42 48.48540 1.94402 35988 ft 465 kts 66°
2026-05-07 13:42 48.51086 2.03368 35987 ft 465 kts 66°
2026-05-07 13:43 48.53616 2.12315 35987 ft 465 kts 66°
2026-05-07 13:43 48.56140 2.21272 35991 ft 465 kts 66°
2026-05-07 13:44 48.58648 2.30207 35998 ft 464 kts 66°
2026-05-07 13:44 48.61157 2.39182 36003 ft 464 kts 66°
2026-05-07 13:45 48.63644 2.48103 36003 ft 464 kts 66°
2026-05-07 13:45 48.66142 2.57103 36003 ft 465 kts 66°
2026-05-07 13:46 48.68631 2.66104 36004 ft 465 kts 67°
2026-05-07 13:46 48.71116 2.75126 36001 ft 465 kts 67°
2026-05-07 13:47 48.73588 2.84134 36005 ft 465 kts 67°
2026-05-07 13:47 48.76047 2.93129 35998 ft 465 kts 67°
2026-05-07 13:48 48.78505 3.02158 35989 ft 464 kts 67°
2026-05-07 13:48 48.80947 3.11161 35978 ft 464 kts 67°
2026-05-07 13:49 48.83375 3.20145 35989 ft 464 kts 67°
2026-05-07 13:49 48.85811 3.29193 35989 ft 464 kts 67°
2026-05-07 13:50 48.88233 3.38230 35989 ft 464 kts 67°
2026-05-07 13:50 48.90654 3.47292 35990 ft 464 kts 67°
2026-05-07 13:51 48.93073 3.56383 35986 ft 464 kts 67°
2026-05-07 13:51 48.95469 3.65428 35987 ft 464 kts 68°
2026-05-07 13:52 48.97815 3.74308 35992 ft 464 kts 68°
2026-05-07 13:52 49.00213 3.83428 35995 ft 463 kts 68°
2026-05-07 13:53 49.02586 3.92496 36253 ft 463 kts 68°
2026-05-07 13:53 49.03770 3.97034 36128 ft 461 kts 68°
2026-05-07 13:53 49.04955 4.01580 36073 ft 461 kts 68°
2026-05-07 13:54 49.07311 4.10657 36031 ft 461 kts 68°
2026-05-07 13:54 49.09644 4.19679 36021 ft 462 kts 68°
2026-05-07 13:55 49.11988 4.28781 36019 ft 462 kts 68°
2026-05-07 13:55 49.14264 4.37621 36020 ft 461 kts 67°
2026-05-07 13:56 49.16719 4.46648 36016 ft 461 kts 66°
2026-05-07 13:56 49.19112 4.55403 36015 ft 461 kts 66°
2026-05-07 13:57 49.21567 4.64458 36307 ft 461 kts 66°
2026-05-07 13:57 49.22779 4.68953 36496 ft 460 kts 67°
2026-05-07 13:57 49.24003 4.73505 36651 ft 459 kts 67°
2026-05-07 13:57 49.25173 4.77867 36779 ft 460 kts 67°
2026-05-07 13:58 49.26377 4.82363 36898 ft 460 kts 67°
2026-05-07 13:58 49.28780 4.91367 36992 ft 461 kts 67°
2026-05-07 13:59 49.31205 5.00492 36998 ft 461 kts 67°
2026-05-07 13:59 49.33610 5.09577 36996 ft 461 kts 67°
2026-05-07 14:00 49.36004 5.18651 36998 ft 461 kts 67°
2026-05-07 14:00 49.38388 5.27726 36988 ft 461 kts 67°
2026-05-07 14:01 49.40773 5.36838 36992 ft 461 kts 67°
2026-05-07 14:01 49.43149 5.45957 36991 ft 461 kts 67°
2026-05-07 14:02 49.45513 5.55070 36996 ft 460 kts 67°
2026-05-07 14:02 49.47859 5.64151 36993 ft 460 kts 67°
2026-05-07 14:03 49.50215 5.73310 37003 ft 461 kts 68°
2026-05-07 14:03 49.52443 5.82139 36997 ft 461 kts 69°
2026-05-07 14:04 49.54686 5.91365 37002 ft 461 kts 69°
2026-05-07 14:04 49.56917 6.00382 37010 ft 461 kts 69°
2026-05-07 14:05 49.59184 6.09588 37005 ft 460 kts 69°
2026-05-07 14:05 49.61430 6.18766 37000 ft 460 kts 69°
2026-05-07 14:06 49.63633 6.28010 37012 ft 460 kts 71°
2026-05-07 14:06 49.65403 6.37419 37000 ft 460 kts 74°
2026-05-07 14:07 49.67074 6.46875 37005 ft 460 kts 74°
2026-05-07 14:07 49.68746 6.56383 37002 ft 460 kts 74°
2026-05-07 14:08 49.70405 6.65845 36993 ft 459 kts 75°
2026-05-07 14:08 49.72066 6.75359 36998 ft 459 kts 75°
2026-05-07 14:09 49.73716 6.84851 36995 ft 459 kts 75°
2026-05-07 14:09 49.75363 6.94381 36994 ft 459 kts 75°
2026-05-07 14:10 49.76991 7.03853 36997 ft 459 kts 75°
2026-05-07 14:10 49.78616 7.13351 36989 ft 459 kts 75°
2026-05-07 14:11 49.80235 7.22877 37004 ft 459 kts 75°
2026-05-07 14:11 49.81851 7.32434 37006 ft 459 kts 75°
2026-05-07 14:12 49.83466 7.42041 37008 ft 467 kts 75°
2026-05-07 14:12 49.85095 7.51780 37003 ft 470 kts 75°
2026-05-07 14:13 49.86718 7.61542 37001 ft 471 kts 75°
2026-05-07 14:13 49.88335 7.71322 37003 ft 471 kts 76°
2026-05-07 14:14 49.89945 7.81118 36998 ft 471 kts 76°
2026-05-07 14:14 49.91549 7.90940 37001 ft 471 kts 76°
2026-05-07 14:15 49.93143 8.00753 37004 ft 471 kts 76°
2026-05-07 14:15 49.94734 8.10608 37007 ft 471 kts 76°
2026-05-07 14:16 49.96302 8.20381 37013 ft 471 kts 76°
2026-05-07 14:16 49.97880 8.30266 37014 ft 471 kts 76°
2026-05-07 14:17 49.99441 8.40116 37014 ft 472 kts 76°
2026-05-07 14:17 50.00991 8.49955 37016 ft 472 kts 76°
2026-05-07 14:18 50.02542 8.59867 37015 ft 472 kts 76°
2026-05-07 14:18 50.04078 8.69742 37016 ft 472 kts 76°
2026-05-07 14:19 50.05336 8.79730 37014 ft 473 kts 82°
2026-05-07 14:19 50.05861 8.89874 37007 ft 473 kts 88°
2026-05-07 14:20 50.06027 9.00048 37004 ft 473 kts 89°
2026-05-07 14:20 50.06177 9.10288 37008 ft 474 kts 89°
2026-05-07 14:21 50.06326 9.20512 37001 ft 473 kts 89°
2026-05-07 14:21 50.06468 9.30647 37001 ft 473 kts 89°
2026-05-07 14:22 50.06602 9.40887 36997 ft 474 kts 89°
2026-05-07 14:22 50.06727 9.51090 36991 ft 474 kts 89°
2026-05-07 14:23 50.06842 9.61280 36983 ft 474 kts 89°
2026-05-07 14:23 50.06942 9.71490 36991 ft 474 kts 90°
2026-05-07 14:24 50.07038 9.81757 36991 ft 475 kts 89°
2026-05-07 14:24 50.07137 9.91960 36997 ft 475 kts 89°
2026-05-07 14:25 50.07224 10.02205 36992 ft 476 kts 90°
2026-05-07 14:25 50.07298 10.12516 36996 ft 476 kts 90°
2026-05-07 14:26 50.07337 10.22712 36995 ft 475 kts 90°
2026-05-07 14:26 50.07385 10.33006 36995 ft 475 kts 90°
2026-05-07 14:27 50.07436 10.43211 37002 ft 475 kts 90°
2026-05-07 14:27 50.07473 10.53419 36995 ft 475 kts 90°
2026-05-07 14:28 50.07500 10.63696 36991 ft 475 kts 90°
2026-05-07 14:28 50.07516 10.73945 36997 ft 475 kts 90°
2026-05-07 14:29 50.07524 10.84158 36990 ft 475 kts 90°
2026-05-07 14:29 50.07523 10.94432 36974 ft 475 kts 90°
2026-05-07 14:30 50.07513 11.04637 36971 ft 475 kts 90°
2026-05-07 14:30 50.07494 11.14864 36972 ft 474 kts 90°
2026-05-07 14:31 50.07466 11.25149 36972 ft 475 kts 91°
2026-05-07 14:31 50.07429 11.35360 36970 ft 475 kts 91°
2026-05-07 14:32 50.07383 11.45576 36970 ft 475 kts 91°
2026-05-07 14:32 50.07328 11.55786 36973 ft 475 kts 91°
2026-05-07 14:33 50.07264 11.66047 36965 ft 475 kts 92°
2026-05-07 14:33 50.07191 11.76285 36964 ft 475 kts 92°
2026-05-07 14:34 50.07109 11.86505 36963 ft 474 kts 92°
2026-05-07 14:34 50.07018 11.96725 36962 ft 475 kts 92°
2026-05-07 14:35 50.06915 12.07001 36965 ft 475 kts 92°
2026-05-07 14:35 50.06805 12.17207 36966 ft 475 kts 92°
2026-05-07 14:36 50.06686 12.27456 36968 ft 475 kts 91°
2026-05-07 14:36 50.07612 12.37557 36964 ft 477 kts 72°
2026-05-07 14:37 50.10010 12.47131 36966 ft 478 kts 68°
2026-05-07 14:37 50.13766 12.61534 36962 ft 478 kts 68°
2026-05-07 14:38 50.16198 12.71051 36967 ft 479 kts 69°
2026-05-07 14:38 50.18650 12.80743 36965 ft 479 kts 69°
2026-05-07 14:39 50.21077 12.90395 36966 ft 479 kts 70°
2026-05-07 14:39 50.23491 13.00035 36961 ft 478 kts 70°
2026-05-07 14:40 50.25893 13.09673 36960 ft 479 kts 70°
2026-05-07 14:40 50.28279 13.19282 36953 ft 479 kts 70°
2026-05-07 14:41 50.30680 13.29005 36949 ft 479 kts 70°
2026-05-07 14:41 50.33065 13.38701 36953 ft 480 kts 70°
2026-05-07 14:42 50.35432 13.48364 36951 ft 480 kts 70°
2026-05-07 14:42 50.37816 13.58144 36956 ft 480 kts 70°
2026-05-07 14:43 50.40178 13.67868 36951 ft 480 kts 71°
2026-05-07 14:43 50.42535 13.77620 36953 ft 480 kts 71°
2026-05-07 14:44 50.44885 13.87385 36951 ft 481 kts 71°
2026-05-07 14:44 50.47228 13.97172 36949 ft 481 kts 71°
2026-05-07 14:45 50.49563 14.06962 36950 ft 481 kts 71°
2026-05-07 14:45 50.51892 14.16775 36953 ft 481 kts 71°
2026-05-07 14:46 50.54207 14.26574 36952 ft 481 kts 71°
2026-05-07 14:46 50.56524 14.36429 36950 ft 481 kts 71°
2026-05-07 14:47 50.58821 14.46247 36953 ft 481 kts 71°
2026-05-07 14:47 50.61119 14.56106 36944 ft 482 kts 71°
2026-05-07 14:48 50.63412 14.65991 36941 ft 482 kts 72°
2026-05-07 14:48 50.65694 14.75873 36944 ft 481 kts 72°
2026-05-07 14:49 50.67956 14.85715 36940 ft 482 kts 72°
2026-05-07 14:49 50.70227 14.95642 36938 ft 482 kts 73°
2026-05-07 14:50 50.72485 15.05565 36932 ft 483 kts 73°
2026-05-07 14:50 50.74724 15.15452 36932 ft 483 kts 73°
2026-05-07 14:51 50.76973 15.25434 36926 ft 483 kts 73°
2026-05-07 14:51 50.79194 15.35417 36923 ft 482 kts 74°
2026-05-07 14:52 50.81160 15.45440 36915 ft 482 kts 76°
2026-05-07 14:52 50.83086 15.55597 36917 ft 482 kts 76°
2026-05-07 14:53 50.85013 15.65727 36915 ft 482 kts 77°
2026-05-07 14:53 50.86942 15.75869 36913 ft 483 kts 77°
2026-05-07 14:54 50.88856 15.85964 36911 ft 484 kts 77°
2026-05-07 14:54 50.90785 15.96188 36912 ft 484 kts 77°
2026-05-07 14:55 50.92693 16.06356 36923 ft 484 kts 77°
2026-05-07 14:55 50.94602 16.16578 36933 ft 484 kts 77°
2026-05-07 14:56 50.96484 16.26726 36925 ft 484 kts 77°
2026-05-07 14:56 50.98375 16.36972 36946 ft 485 kts 77°
2026-05-07 14:57 51.00258 16.47218 36955 ft 484 kts 77°
2026-05-07 14:57 51.02123 16.57441 36954 ft 485 kts 77°
2026-05-07 14:58 51.03974 16.67643 36957 ft 484 kts 78°
2026-05-07 14:58 51.05827 16.77899 36971 ft 485 kts 78°
2026-05-07 14:59 51.07676 16.88203 36769 ft 484 kts 78°
2026-05-07 14:59 51.09506 16.98451 36904 ft 486 kts 78°
2026-05-07 15:00 51.11348 17.08825 36940 ft 487 kts 78°
2026-05-07 15:00 51.13164 17.19118 36942 ft 486 kts 78°
2026-05-07 15:01 51.14980 17.29469 36944 ft 486 kts 78°
2026-05-07 15:01 51.16783 17.39802 36950 ft 487 kts 78°
2026-05-07 15:02 51.18585 17.50191 36938 ft 488 kts 78°
2026-05-07 15:02 51.20379 17.60603 36935 ft 488 kts 78°
2026-05-07 15:03 51.22157 17.70976 36935 ft 489 kts 79°
2026-05-07 15:03 51.23933 17.81407 36943 ft 489 kts 79°
2026-05-07 15:04 51.25701 17.91851 36943 ft 490 kts 79°
2026-05-07 15:04 51.27454 18.02267 36541 ft 490 kts 79°
2026-05-07 15:05 51.28341 18.07557 36250 ft 490 kts 79°
2026-05-07 15:05 51.29212 18.12757 35956 ft 487 kts 79°
2026-05-07 15:05 51.30068 18.17888 35568 ft 486 kts 80°
2026-05-07 15:05 51.30936 18.23104 35078 ft 487 kts 80°
2026-05-07 15:06 51.31802 18.28332 34364 ft 489 kts 80°
2026-05-07 15:06 51.32663 18.33561 33538 ft 490 kts 81°
2026-05-07 15:06 51.33519 18.38778 32691 ft 492 kts 81°
2026-05-07 15:06 51.34379 18.44028 31818 ft 493 kts 81°
2026-05-07 15:07 51.35246 18.49344 30924 ft 495 kts 81°
2026-05-07 15:07 51.36171 18.54624 29988 ft 500 kts 76°
2026-05-07 15:07 51.37443 18.59813 29035 ft 504 kts 71°
2026-05-07 15:07 51.38846 18.64911 28152 ft 505 kts 70°
2026-05-07 15:08 51.40270 18.69978 27502 ft 500 kts 70°
2026-05-07 15:08 51.41677 18.75036 26982 ft 499 kts 70°
2026-05-07 15:08 51.43061 18.80095 26455 ft 498 kts 70°
2026-05-07 15:08 51.44423 18.85133 25958 ft 494 kts 70°
2026-05-07 15:09 51.45767 18.90146 25409 ft 490 kts 70°
2026-05-07 15:09 51.47030 18.94891 24874 ft 485 kts 71°
2026-05-07 15:09 51.48342 18.99845 24313 ft 480 kts 71°
2026-05-07 15:09 51.49631 19.04727 23750 ft 476 kts 70°
2026-05-07 15:10 51.50900 19.09545 23193 ft 472 kts 70°
2026-05-07 15:10 51.52163 19.14351 22645 ft 469 kts 70°
2026-05-07 15:10 51.53419 19.19150 22114 ft 465 kts 70°
2026-05-07 15:10 51.54666 19.23919 21572 ft 461 kts 70°
2026-05-07 15:11 51.55885 19.28592 21040 ft 457 kts 70°
2026-05-07 15:11 51.57111 19.33300 20502 ft 453 kts 69°
2026-05-07 15:11 51.58312 19.37921 19979 ft 449 kts 69°
2026-05-07 15:11 51.59502 19.42511 19454 ft 444 kts 69°
2026-05-07 15:12 51.60671 19.47027 18927 ft 440 kts 69°
2026-05-07 15:12 51.61847 19.51580 18424 ft 435 kts 69°
2026-05-07 15:12 51.62980 19.55969 17935 ft 432 kts 69°
2026-05-07 15:12 51.64122 19.60410 17429 ft 428 kts 69°
2026-05-07 15:13 51.65258 19.64834 16934 ft 425 kts 69°
2026-05-07 15:13 51.66376 19.69197 16439 ft 422 kts 70°
2026-05-07 15:13 51.67491 19.73559 15987 ft 420 kts 69°
2026-05-07 15:13 51.68599 19.77898 15541 ft 417 kts 69°
2026-05-07 15:14 51.69688 19.82175 15097 ft 415 kts 69°
2026-05-07 15:14 51.70765 19.86410 14652 ft 413 kts 69°
2026-05-07 15:14 51.71860 19.90723 14182 ft 410 kts 69°
2026-05-07 15:14 51.72932 19.94951 13728 ft 408 kts 69°
2026-05-07 15:15 51.73987 19.99124 13291 ft 406 kts 69°
2026-05-07 15:15 51.75048 20.03333 12846 ft 403 kts 69°
2026-05-07 15:15 51.76089 20.07470 12406 ft 400 kts 69°
2026-05-07 15:15 51.77128 20.11600 11940 ft 397 kts 68°
2026-05-07 15:16 51.78150 20.15679 11498 ft 394 kts 68°
2026-05-07 15:16 51.79168 20.19745 11056 ft 391 kts 68°
2026-05-07 15:16 51.80174 20.23766 10610 ft 385 kts 68°
2026-05-07 15:16 51.81168 20.27750 10157 ft 375 kts 68°
2026-05-07 15:17 51.82117 20.31558 9724 ft 361 kts 67°
2026-05-07 15:17 51.83031 20.35233 9273 ft 346 kts 67°
2026-05-07 15:17 51.83902 20.38739 8823 ft 331 kts 67°
2026-05-07 15:17 51.84745 20.42136 8399 ft 317 kts 67°
2026-05-07 15:18 51.85543 20.45360 8186 ft 305 kts 67°
2026-05-07 15:18 51.86319 20.48502 7963 ft 296 kts 67°
2026-05-07 15:18 51.87065 20.51525 7735 ft 291 kts 67°
2026-05-07 15:18 51.87814 20.54562 7515 ft 290 kts 66°
2026-05-07 15:19 51.88555 20.57572 7293 ft 289 kts 66°
2026-05-07 15:19 51.89298 20.60593 7066 ft 288 kts 66°
2026-05-07 15:19 51.90031 20.63577 6833 ft 287 kts 66°
2026-05-07 15:19 51.90764 20.66565 6612 ft 285 kts 67°
2026-05-07 15:20 51.91503 20.69579 6389 ft 284 kts 67°
2026-05-07 15:20 51.92236 20.72580 6157 ft 283 kts 67°
2026-05-07 15:20 51.92957 20.75532 5941 ft 281 kts 67°
2026-05-07 15:20 51.93673 20.78468 5717 ft 279 kts 67°
2026-05-07 15:21 51.94379 20.81364 5493 ft 276 kts 67°
2026-05-07 15:21 51.95079 20.84242 5267 ft 274 kts 67°
2026-05-07 15:21 51.95773 20.87101 5038 ft 273 kts 67°
2026-05-07 15:21 51.96468 20.89968 4812 ft 272 kts 66°
2026-05-07 15:22 51.97156 20.92805 4591 ft 270 kts 67°
2026-05-07 15:22 51.97840 20.95635 4368 ft 269 kts 66°
2026-05-07 15:22 51.98512 20.98419 4142 ft 266 kts 66°
2026-05-07 15:22 51.99177 21.01179 3913 ft 259 kts 66°
2026-05-07 15:23 51.99822 21.03859 3672 ft 250 kts 66°
2026-05-07 15:23 52.00659 21.06206 3427 ft 235 kts 41°
2026-05-07 15:23 52.02029 21.07457 3172 ft 226 kts 10°
2026-05-07 15:23 52.03549 21.07462 2905 ft 220 kts 349°
2026-05-07 15:24 52.04993 21.06728 2649 ft 217 kts 336°
2026-05-07 15:24 52.06321 21.05698 2370 ft 203 kts 332°
2026-05-07 15:24 52.07543 21.04628 2117 ft 198 kts 332°
2026-05-07 15:24 52.08748 21.03555 1891 ft 193 kts 332°
2026-05-07 15:25 52.09864 21.02573 1735 ft 173 kts 332°
2026-05-07 15:25 52.10890 21.01680 1446 ft 159 kts 330°
2026-05-07 15:25 52.11820 21.00867 1193 ft 144 kts 332°
2026-05-07 15:25 52.12661 21.00134 984 ft 133 kts 331°
2026-05-07 15:26 52.13462 20.99433 832 ft 132 kts 331°
2026-05-07 15:26 52.14269 20.98730 668 ft 131 kts 330°
2026-05-07 15:26 52.15068 20.98021 500 ft 130 kts 329°
2026-05-07 15:26 52.15865 20.97329 381 ft 127 kts 331°
2026-05-07 15:27 52.16547 20.96732 366 ft 89 kts 332°
2026-05-07 15:27 52.16959 20.96371 366 ft 48 kts 331°
2026-05-07 15:27 52.17173 20.96249 366 ft 20 kts 354°
2026-05-07 15:27 52.17267 20.96246 366 ft 9 kts
2026-05-07 15:28 52.17339 20.96248 366 ft 10 kts
2026-05-07 15:28 52.17402 20.96307 366 ft 13 kts 59°
2026-05-07 15:28 52.17448 20.96447 366 ft 14 kts 62°
2026-05-07 15:28 52.17501 20.96574 366 ft 13 kts 45°
2026-05-07 15:29 52.17552 20.96698 366 ft 13 kts 60°
2026-05-07 15:29 52.17602 20.96833 366 ft 14 kts 58°
2026-05-07 15:29 52.17632 20.96914 366 ft 2 kts 92°
2026-05-07 15:29 52.17616 20.96955 366 ft 5 kts 141°
2026-05-07 15:30 52.17577 20.96983 366 ft 5 kts 183°
2026-05-07 15:30 52.17557 20.96945 366 ft 5 kts 241°
2026-05-07 15:30 52.17542 20.96900 366 ft 0 kts 242°
2026-05-07 15:30 52.17540 20.96896 366 ft 0 kts 242°